www.pogodaiklimat.ru

Погода и климат >> Архив погоды >> Китай >> Хэйлунцзян >> Суйфэньхэ


ПОГОДА в Суйфэньхэ

  • Прогноз погоды в Суйфэньхэ
  • Монитор погоды в Суйфэньхэ

АРХИВ ПОГОДЫ в Суйфэньхэ

Время (UTC), дата Ветер
(напр.,м/с)
 
Видим.   Явления Облачность Т
(С)
Тd
(С)
f
(%)
Тe
(С)
Тes
(С)
Комфортность P
(гПа)
Po
(гПа)
Тmin
(С)
Tmax
(С)
R
(мм)
R24
(мм)
S
(см)
21 12.06 В 1 100 м туман ?/? +11.7 +11.5 99 +11 +11 1006.6 948.2
00 13.06 В 1 100 м 10/10 600 м
[]
+12.7 +12.5 99 +13 +13 1006.7 948.5 0.1
03 13.06 В 3 26 км в посл. час туман 9/9 600 м
[]
+18.3 +17.5 95 +19 +21 1004.4 947.4
06 13.06 ЮВ 4 30 км {туман} 9/9 600 м
[]
+23.2 +16.5 66 +28 +29 душно 1001.9 946.0 +11.6
09 13.06 В 2 30 км 9/9 600 м
[]
+17.5 +14.2 81 +18 +18 1002.1 945.1
12 13.06 ЮВ 2 18 км в посл. час дождь 9/9 600 м
[]
+14.7 +13.9 95 +14 +14 1003.3 945.7 0.3
18 13.06 З 3 30 км ?/? +16.7 +14.0 84 +16 +16 1002.5 945.3 +24.7 0.1
21 13.06 З 2 28 км н/о +16.0 +13.7 86 +16 +16 1003.8 946.4
00 14.06 З 2 23 км 9/9 600 м
[]
+16.8 +13.9 83 +17 +18 1004.5 947.2 0.1
03 14.06 В 3 30 км 9/9 600 м
[]
+19.2 +15.9 81 +21 +23 комфорт 1003.4 946.7
06 14.06 В 3 н/о дождь 10/10 600 м
[]
+16.8 +13.5 81 +17 +17 1002.8 945.6 +14.7 7
09 14.06 В 2 26 км слаб. дождь 10/10 600 м
[]
+13.6 +11.8 89 +13 +13 1004.7 946.8
12 14.06 В 1 12 км слаб. дождь 10/10 600 м
[]
+12.9 +12.6 98 +13 +13 1005.6 947.5 25
18 14.06 В 3 400 м дождь {туман} ?/? +11.0 +10.7 98 +9 +9 1004.8 946.4 +21.0 8
21 14.06 В 1 1200 м слаб. дождь ?/? +9.3 +9.2 99 +9 +9 1005.9 947.1
00 15.06 С 2 15 км слаб. дождь 10/10 300 м
[]
+8.5 +7.9 96 +6 +6 1006.9 947.9 6
03 15.06 СВ 2 24 км слаб. дождь 10/10 1000 м
[]
+8.8 +7.7 93 +7 +7 1007.8 948.8
06 15.06 С 1 15 км слаб. дождь 10/10 1000 м
[]
+8.8 +7.9 94 +8 +8 1007.9 948.9 +8.1 6
09 15.06 С 1 26 км слаб. дождь 10/10 1000 м
[]
+9.1 +8.3 95 +8 +8 1008.4 949.4
12 15.06 С 2 29 км слаб. дождь 10/10 1000 м
[]
+10.1 +9.2 94 +8 +8 1009.0 942.2 2
18 15.06 С 2 30 км ?/? +9.2 +7.8 91 +7 +7 1008.5 949.5 +11.0 0.3
21 15.06 С 2 30 км ?/? +8.9 +6.9 87 +7 +7 1009.1 950.0
00 16.06 СЗ 2 30 км 9/9 600 м
[]
+10.3 +7.5 83 +9 +10 1009.2 950.4 0.3
03 16.06 СВ 2 30 км 9/9 600 м
[]
+12.1 +7.8 75 +11 +13 1009.2 950.7
06 16.06 С 2 30 км 9/9 600 м
[]
+14.3 +7.1 62 +14 +15 1008.9 950.9 +8.6
09 16.06 С 2 30 км 1/1 600 м
[]
+16.5 +3.9 43 +17 +19 1008.5 950.9
12 16.06 З 1 30 км ясно +11.1 +4.6 64 +11 +11 1010.2 951.5
18 16.06 З 2 29 км ?/? +4.8 +4.1 95 +2 +2 1011.3 951.2 +17.1
21 16.06 СЗ 2 700 м туман ?/? +4.5 +4.2 98 +2 +2 1011.2 951.1
00 17.06 З 2 30 км ясно +13.8 +6.4 61 +13 +25 опасность
простуды
1011.0 952.8
03 17.06 В 1 30 км 4/4 600 м
[]
+18.5 +5.0 41 +20 +33 опасность
простуды
1010.0 952.7
06 17.06 ЮВ 2 30 км 4/4 600 м
[]
+18.1 +6.9 48 +19 +27 1009.5 952.2 +3.4
09 17.06 В 2 16 км слаб. дождь 9/9 1000 м
[]
+14.6 +8.3 66 +14 +15 1010.2 952.2
12 17.06 В 1 30 км {дождь} 9/9 1000 м
[]
+13.0 +7.2 68 +13 +13 1009.8 951.5 0.5
18 17.06 В 1 30 км слаб. дождь ?/? +11.7 +8.4 80 +12 +12 1008.2 949.7 +19.4
21 17.06 З 2 18 км в посл. час дождь н/о +10.9 +9.5 91 +10 +10 1007.9 949.3
00 18.06 штиль 0 30 км 5/5 600 м
[]
+16.2 +10.5 69 +16 +24 1006.7 949.2 0.0
03 18.06 З 2 30 км 8/8 600 м
[]
+20.2 +10.3 53 +22 +26 комфорт 1005.1 948.4
06 18.06 З 3 30 км 8/8 600 м
[]
+21.5 +7.7 41 +22 +25 комфорт 1003.9 947.6 +9.8
09 18.06 В 3 30 км 8/8 600 м
[]
+15.9 +12.8 82 +15 +16 1005.1 947.6
12 18.06 В 2 30 км 9/9 600 м
[]
+14.2 +12.6 90 +14 +14 1006.2 940.9
18 18.06 З 2 200 м туман ?/? +10.1 +9.6 97 +8 +8 1005.2 946.6 +22.6
21 18.06 З 2 300 м туман н/о +9.8 +9.5 98 +8 +8 1005.4 946.7
00 19.06 З 3 30 км 9/9
[]
+17.6 +10.0 61 +18 +19 1004.6 947.5
03 19.06 З 1 30 км 9/9 600 м
[]
+21.3 +8.2 43 +22 +25 комфорт 1003.0 946.7
06 19.06 З 3 30 км 9/9 600 м
[]
+23.3 +8.6 39 +25 +26 комфорт 1001.4 945.5 +9.5
09 19.06 З 1
{17}
30 км {дождь} 9/9 1000 м
[]
+17.5 +11.8 69 +19 +19 1001.3 944.4
12 19.06 З 2
{17}
30 км {дождь} 9/9 1000 м
[]
+15.0 +11.0 77 +15 +15 1001.2 943.8 0.5
18 19.06 З 2 22 км ?/? +11.6 +10.8 95 +10 +10 1000.6 942.5 +24.7

 

Местоположение метеостанции Суйфэньхэ (Хэйлунцзян, Китай): широта 44.38 долгота 131.15 высота над уровнем моря 498 м.

В архиве по умолчанию представлена погода в Суйфэньхэ за последнюю неделю. Архивные данные за месяц целиком и за предыдущие месяцы, начиная с января 2011 года, Вы можете получить, выбрав интересующий диапазон дат из раскрывающегося списка и нажав кнопку "Ввод!".


*Определитесь, кто Вы:
робот инопланетянин человек

Внимание! Время в таблицах - всемирное. Для получения местного времени необходимо прибавить поправку, которая равна 8 ч.

Смотрите также архив погоды в соседних городах и на ближайших метеорологических станциях:

Погода в Пограничном (Приморский край, Россия) (12 км)
Погода в Полтавке (Приморский край, Россия) (41 км)
Погода в Хороле (Приморский край, Россия) (68 км)
Погода в Астраханке (Приморский край, Россия) (77 км)
Погода в Тимирязевском (Приморский край, Россия) (82 км)
Погода в Цзиси (Хэйлунцзян, Китай) (101 км)
Погода в Турьем Роге (Приморский край, Россия) (113 км)
Погода в Муданьцзяне (Хэйлунцзян, Китай) (125 км)
Погода в Барабаше (Приморский край, Россия) (133 км)
Погода в Спасск-Дальнем (Приморский край, Россия) (134 км)

Пояснения к столбцам:

Ветер - указаны скорость ветра в м/с - средняя за 10 мин, порывы в срок и между сроками (в фигурных скобках) и направление, откуда дует ветер: С - северный, СВ - северо-восточный, В - восточный, ЮВ - юго-восточный, Ю - южный, ЮЗ - юго-западный, З - западный, СЗ - северо-западный.
Видимость - горизонтальная дальность видимости в метрах или километрах. При видимости от 1 до 10 км при отсутствии осадков обычно наблюдается дымка, при ухудшении видимости до 1 км и менее - туман. В сухую погоду видимость может ухудшаться дымом, пылью или мглою.
Явления - указаны атмосферные явления, наблюдавшиеся в срок или в последний час перед сроком; фигурными скобками обозначены явления, наблюдавшиеся между сроками (за 1-3 часа до срока); квадратными скобками обозначены град или гололедные отложения с указанием их диаметра в мм.
Облачность - указаны через наклонную черту общая и нижняя облачность в баллах и высота нижней границы облаков в метрах; квадратными скобками обозначены формы облаков: Ci - перистые, Cs - перисто-слоистые, Cc - перисто-кучевые, Ac - высококучевые, As - высокослоистые, Sc - слоисто-кучевые, Ns - слоисто-дождевые, Cu - кучевые, Cb - кучево-дождевые. Подробнее классификацию облаков см. в Атласе облаков (PDF).
T - Температура воздуха - температура, измеренная на высоте 2 м над землей.
Td - Температура точки росы - температура, при понижении до которой содержащийся в воздухе водяной пар достигнет насыщения.
f - Относительная влажность воздуха - влажноcть воздуха, измеренная на высоте 2 м над землей.
Te - Эффективная температура - температура, которую ощущает одетый по сезону человек в тени. Характеристика душности погоды. При расчете учитывается влияние влажности воздуха и скорости ветра на теплоощущения человека.
Tes - Эффективная температура на солнце - температура, которую ощущает человек, с поправкой на солнечный нагрев. Характеристика знойности погоды. Зависит от высоты солнца над горизонтом, облачности и скорости ветра. Ночью, в пасмурную погоду, а также при ветре 12 м/с и более поправка равна нулю.
P - Атмосферное давление - приведенное к уровню моря атмосферное давление.
Po - Атмосферное давление - измеренное на уровне метеостанции атмосферное давление.
Tmin - Минимальная температура - минимум температуры воздуха на высоте 2 м над землей.
Tmax - Максимальная температура - максимум температуры воздуха на высоте 2 м над землей.
R - Количество осадков - Количество выпавших осадков за период времени, мм. При наведении курсора мыши на число - период времени, за который выпало указанное количество осадков.
R24 - Количество осадков - Количество выпавших осадков за 24 часа, мм.
S - Снежный покров - Высота снежного покрова, см. При наведении курсора мыши на число - состояние снежного покрова и степень покрытия местности в баллах.